GLO18V SBCT-SBRJ

Flight info

Callsign GLO18V
Flight time N/A
Altitude 37000
Route EDVEB UM548 KOXAG UM400 KOLBI
Aircraft B737/M-SDE2E3FGHIRWXY/LB1

Departure

Time 2026-04-28 02:34
Airport Curitiba-Afonso Pena International Airport (SBCT)

Arrival

Time N/A
Airport Santos Dumont Airport (SBRJ)
Time Latitude Longitude Altitude Speed Heading
2026-04-28 02:01 -25.53664 -49.17113 2995 ft 0 kts 225°
2026-04-28 02:19 -25.53653 -49.17101 2995 ft 4 kts 228°
2026-04-28 02:19 -25.53637 -49.17078 2995 ft 4 kts 241°
2026-04-28 02:19 -25.53629 -49.17052 2995 ft 4 kts 287°
2026-04-28 02:19 -25.53634 -49.17042 2995 ft 1 kts 315°
2026-04-28 02:23 -25.53633 -49.17042 2995 ft 0 kts 315°
2026-04-28 02:24 -25.53621 -49.17056 2995 ft 5 kts 315°
2026-04-28 02:24 -25.53583 -49.17097 2995 ft 9 kts 315°
2026-04-28 02:24 -25.53538 -49.17148 2995 ft 10 kts 314°
2026-04-28 02:24 -25.53481 -49.17137 2995 ft 10 kts 42°
2026-04-28 02:25 -25.53424 -49.17155 2995 ft 10 kts 314°
2026-04-28 02:25 -25.53374 -49.17212 2995 ft 11 kts 314°
2026-04-28 02:25 -25.53313 -49.17281 2995 ft 14 kts 315°
2026-04-28 02:25 -25.53242 -49.17360 2995 ft 15 kts 314°
2026-04-28 02:26 -25.53171 -49.17440 2995 ft 14 kts 314°
2026-04-28 02:26 -25.53103 -49.17515 2995 ft 14 kts 315°
2026-04-28 02:26 -25.53039 -49.17588 2995 ft 13 kts 315°
2026-04-28 02:26 -25.52983 -49.17662 2994 ft 13 kts 288°
2026-04-28 02:27 -25.52979 -49.17762 2994 ft 13 kts 271°
2026-04-28 02:27 -25.52972 -49.17868 2994 ft 14 kts 289°
2026-04-28 02:27 -25.52899 -49.17948 2993 ft 15 kts 316°
2026-04-28 02:27 -25.52800 -49.17994 2992 ft 16 kts
2026-04-28 02:28 -25.52689 -49.17998 2994 ft 16 kts 358°
2026-04-28 02:28 -25.52648 -49.18000 2995 ft 0 kts 357°
2026-04-28 02:31 -25.52646 -49.18000 2995 ft 1 kts 357°
2026-04-28 02:31 -25.52635 -49.18001 2995 ft 3 kts 357°
2026-04-28 02:31 -25.52611 -49.18002 2995 ft 4 kts 356°
2026-04-28 02:32 -25.52574 -49.18003 2995 ft 7 kts 359°
2026-04-28 02:32 -25.52510 -49.18005 2995 ft 11 kts 358°
2026-04-28 02:32 -25.52431 -49.18049 2995 ft 15 kts 314°
2026-04-28 02:32 -25.52350 -49.18138 2996 ft 18 kts 314°
2026-04-28 02:33 -25.52247 -49.18222 2996 ft 20 kts 351°
2026-04-28 02:33 -25.52226 -49.18271 2995 ft 6 kts 176°
2026-04-28 02:33 -25.52241 -49.18258 2995 ft 0 kts 136°
2026-04-28 02:33 -25.52363 -49.18121 2996 ft 61 kts 135°
2026-04-28 02:34 -25.52834 -49.17595 2993 ft 129 kts 135°
2026-04-28 02:34 -25.53597 -49.16753 3069 ft 175 kts 135°
2026-04-28 02:34 -25.54498 -49.15766 3682 ft 185 kts 135°
2026-04-28 02:34 -25.55361 -49.14635 4308 ft 202 kts 118°
2026-04-28 02:35 -25.55563 -49.13125 5042 ft 206 kts 83°
2026-04-28 02:35 -25.55339 -49.11439 5309 ft 236 kts 81°
2026-04-28 02:35 -25.55083 -49.09570 5823 ft 252 kts 82°
2026-04-28 02:35 -25.54843 -49.07568 6342 ft 273 kts 83°
2026-04-28 02:36 -25.54628 -49.05476 7187 ft 280 kts 84°
2026-04-28 02:36 -25.54429 -49.03290 8157 ft 283 kts 84°
2026-04-28 02:36 -25.54252 -49.01130 9075 ft 287 kts 85°
2026-04-28 02:36 -25.54080 -48.98879 9979 ft 292 kts 85°
2026-04-28 02:37 -25.53912 -48.96615 10491 ft 311 kts 85°
2026-04-28 02:37 -25.53728 -48.94122 10730 ft 337 kts 85°
2026-04-28 02:37 -25.53457 -48.91514 11441 ft 345 kts 79°
2026-04-28 02:37 -25.52942 -48.88906 12294 ft 348 kts 76°
2026-04-28 02:38 -25.52336 -48.86301 13123 ft 352 kts 75°
2026-04-28 02:38 -25.51710 -48.83670 13948 ft 356 kts 75°
2026-04-28 02:38 -25.51085 -48.81000 14767 ft 360 kts 75°
2026-04-28 02:38 -25.50467 -48.78298 15588 ft 364 kts 76°
2026-04-28 02:39 -25.49851 -48.75559 16402 ft 369 kts 76°
2026-04-28 02:39 -25.49233 -48.72778 17188 ft 373 kts 76°
2026-04-28 02:39 -25.48613 -48.69971 17951 ft 377 kts 76°
2026-04-28 02:39 -25.47987 -48.67132 18683 ft 382 kts 76°
2026-04-28 02:40 -25.47354 -48.64264 19410 ft 386 kts 76°
2026-04-28 02:40 -25.46714 -48.61364 20106 ft 390 kts 76°
2026-04-28 02:40 -25.46066 -48.58427 20796 ft 394 kts 76°
2026-04-28 02:40 -25.45411 -48.55465 21463 ft 398 kts 76°
2026-04-28 02:41 -25.44748 -48.52477 22102 ft 402 kts 76°
2026-04-28 02:41 -25.44078 -48.49459 22723 ft 406 kts 76°
2026-04-28 02:41 -25.43399 -48.46413 23319 ft 410 kts 76°
2026-04-28 02:41 -25.42720 -48.43374 23895 ft 414 kts 76°
2026-04-28 02:42 -25.42027 -48.40271 24460 ft 417 kts 76°
2026-04-28 02:42 -25.41328 -48.37145 25005 ft 421 kts 76°
2026-04-28 02:42 -25.40624 -48.33995 25537 ft 424 kts 76°
2026-04-28 02:42 -25.39911 -48.30813 26047 ft 427 kts 76°
2026-04-28 02:43 -25.39193 -48.27609 26543 ft 431 kts 76°
2026-04-28 02:43 -25.38468 -48.24377 27011 ft 434 kts 76°
2026-04-28 02:43 -25.37738 -48.21125 27471 ft 437 kts 76°
2026-04-28 02:43 -25.37002 -48.17853 27929 ft 440 kts 76°
2026-04-28 02:44 -25.36260 -48.14557 28351 ft 443 kts 76°
2026-04-28 02:44 -25.35513 -48.11238 28765 ft 446 kts 76°
2026-04-28 02:44 -25.34760 -48.07901 29174 ft 449 kts 76°
2026-04-28 02:44 -25.34003 -48.04547 29549 ft 452 kts 76°
2026-04-28 02:45 -25.33239 -48.01168 29935 ft 454 kts 76°
2026-04-28 02:45 -25.32471 -47.97767 30296 ft 457 kts 76°
2026-04-28 02:45 -25.31809 -47.94328 30638 ft 459 kts 79°
2026-04-28 02:45 -25.31236 -47.90892 30963 ft 462 kts 79°
2026-04-28 02:46 -25.30656 -47.87398 31283 ft 464 kts 79°
2026-04-28 02:46 -25.30052 -47.83892 31670 ft 464 kts 79°
2026-04-28 02:46 -25.29429 -47.80404 32136 ft 461 kts 78°
2026-04-28 02:46 -25.28802 -47.76935 32587 ft 460 kts 78°
2026-04-28 02:47 -25.28177 -47.73477 32967 ft 459 kts 78°
2026-04-28 02:47 -25.27553 -47.70013 33315 ft 459 kts 78°
2026-04-28 02:47 -25.26933 -47.66561 33683 ft 458 kts 78°
2026-04-28 02:47 -25.26311 -47.63109 34052 ft 457 kts 78°
2026-04-28 02:48 -25.25677 -47.59670 34399 ft 456 kts 78°
2026-04-28 02:48 -25.25037 -47.56239 34714 ft 456 kts 78°
2026-04-28 02:48 -25.24398 -47.52813 35040 ft 456 kts 78°
2026-04-28 02:48 -25.23760 -47.49387 35361 ft 455 kts 78°
2026-04-28 02:49 -25.23123 -47.45964 35670 ft 454 kts 78°
2026-04-28 02:49 -25.22493 -47.42555 35958 ft 454 kts 78°
2026-04-28 02:49 -25.21869 -47.39139 36218 ft 454 kts 78°
2026-04-28 02:49 -25.21247 -47.35721 36434 ft 455 kts 78°
2026-04-28 02:50 -25.20624 -47.32297 36648 ft 455 kts 78°
2026-04-28 02:50 -25.19998 -47.28865 36901 ft 455 kts 78°
2026-04-28 02:50 -25.19371 -47.25433 37000 ft 458 kts 78°
2026-04-28 02:51 -25.18101 -47.18510 36994 ft 460 kts 78°
2026-04-28 02:51 -25.16837 -47.11637 36991 ft 454 kts 78°
2026-04-28 02:52 -25.15581 -47.04828 37003 ft 452 kts 78°
2026-04-28 02:52 -25.14232 -46.98067 36992 ft 451 kts 72°
2026-04-28 02:53 -25.11709 -46.91767 37004 ft 449 kts 63°
2026-04-28 02:53 -25.08904 -46.85656 37006 ft 450 kts 63°
2026-04-28 02:54 -25.06113 -46.79456 37004 ft 451 kts 64°
2026-04-28 02:54 -25.03346 -46.73227 37003 ft 453 kts 64°
2026-04-28 02:55 -25.00563 -46.66971 37002 ft 455 kts 64°
2026-04-28 02:55 -24.97764 -46.60706 37002 ft 456 kts 64°
2026-04-28 02:56 -24.94953 -46.54428 37001 ft 457 kts 64°
2026-04-28 02:56 -24.92136 -46.48142 37001 ft 457 kts 63°
2026-04-28 02:57 -24.89319 -46.41863 37001 ft 457 kts 63°
2026-04-28 02:57 -24.86517 -46.35625 37000 ft 457 kts 63°
2026-04-28 02:58 -24.83698 -46.29356 37000 ft 456 kts 63°
2026-04-28 02:58 -24.80881 -46.23101 37000 ft 456 kts 63°
2026-04-28 02:59 -24.78063 -46.16854 37001 ft 455 kts 63°
2026-04-28 02:59 -24.75250 -46.10624 37001 ft 454 kts 63°
2026-04-28 03:00 -24.72435 -46.04401 37001 ft 454 kts 63°
2026-04-28 03:00 -24.70097 -45.99237 37001 ft 454 kts 63°
2026-04-28 03:01 -24.66824 -45.92019 37002 ft 454 kts 63°
2026-04-28 03:01 -24.64004 -45.85810 37002 ft 454 kts 63°
2026-04-28 03:02 -24.61658 -45.80650 37002 ft 454 kts 63°
2026-04-28 03:02 -24.58835 -45.74447 37002 ft 454 kts 63°
2026-04-28 03:03 -24.56008 -45.68246 37002 ft 454 kts 63°
2026-04-28 03:03 -24.53190 -45.62072 37002 ft 454 kts 63°
2026-04-28 03:04 -24.50337 -45.55829 37002 ft 455 kts 63°
2026-04-28 03:04 -24.47498 -45.49626 37002 ft 455 kts 63°